Theta_e
332 330 330 330 330 330 330 330 330 329 329 328 327 328 327 327 327 327 327 327 327 326 325 325 325 325 326 327 328 329 331 331 329 330 330 329 329 328 326 328 328 328 329 329 329 328 328 328 328 327 327 327 327 327 327 327 327 326 325 325 325 325 324
332 329 329 329 329 330 329 330 330 329 328 328 327 326 326 327 326 327 326 326 326 325 325 326 325 325 326 325 326 326 328 329 328 329 330 329 329 329 327 327 329 328 328 329 330 328 328 329 328 327 327 327 326 326 326 326 325 324 324 324 324 323 324
330 329 328 327 329 330 330 329 327 326 326 327 326 325 325 324 323 323 323 322 322 320 322 324 324 324 324 324 325 324 324 326 328 328 328 328 328 328 328 328 328 328 328 329 329 329 328 328 328 327 326 327 326 326 325 324 324 324 323 323 323 323 324
329 329 328 327 328 330 330 328 325 324 325 326 325 323 323 322 320 319 320 320 319 318 319 321 322 322 321 320 322 322 322 324 327 328 327 327 326 327 328 328 328 327 328 328 328 329 328 328 328 328 327 326 326 325 324 323 323 324 324 323 323 323 324
328 329 329 327 328 329 329 328 326 326 326 326 325 323 321 319 317 317 317 319 318 317 319 320 320 320 319 317 318 320 322 323 324 326 328 327 326 327 328 328 327 328 328 329 328 328 328 328 328 328 326 325 324 324 324 323 323 323 324 323 323 323 323
326 328 328 326 327 328 328 327 326 325 325 324 323 321 317 314 315 315 316 319 319 319 320 319 317 317 317 318 319 321 324 323 323 326 329 327 326 328 329 328 328 329 329 329 329 328 328 327 328 327 325 324 324 324 323 322 322 322 322 322 322 323 323
326 327 326 324 326 326 325 324 323 323 321 319 317 316 313 313 317 317 316 317 318 317 316 314 314 315 318 321 322 322 324 323 323 326 327 325 325 328 330 329 329 329 329 329 328 328 328 327 327 326 325 325 324 323 322 321 321 321 321 321 321 322 322
327 326 324 323 321 319 318 318 319 319 316 315 316 316 314 316 318 316 313 311 310 310 311 312 316 318 320 322 323 323 323 323 323 324 324 323 323 325 327 329 329 329 329 328 328 328 327 327 327 325 324 323 322 322 321 320 320 320 320 319 320 321 320
328 325 323 320 315 313 314 316 319 319 316 316 319 317 316 317 316 312 309 306 306 309 313 316 319 321 321 322 322 322 322 322 321 322 322 321 321 322 323 326 328 329 328 328 328 328 327 326 326 324 322 321 321 321 321 320 320 319 319 318 318 318 318
326 323 321 317 314 315 317 320 321 320 318 318 317 315 316 317 314 310 308 305 306 310 315 318 320 321 321 321 320 321 320 320 320 320 321 320 321 321 322 324 328 329 327 327 328 327 327 326 324 323 322 321 320 321 320 320 319 318 318 317 316 315 315
325 322 319 317 317 318 320 322 322 319 317 316 314 314 317 316 313 311 307 304 306 310 315 318 319 320 321 320 319 319 318 319 319 318 318 317 318 321 321 323 327 328 326 327 327 325 325 324 322 321 321 320 319 319 319 319 319 319 317 317 315 314 312
326 323 320 318 318 319 322 323 322 317 314 312 312 315 318 317 313 310 307 305 305 308 312 316 318 319 320 319 319 319 318 318 318 316 316 317 317 319 320 322 325 326 324 325 324 322 323 323 321 319 318 318 318 318 318 318 319 318 317 316 314 312 311
326 323 320 318 318 319 321 323 322 316 311 310 313 317 319 318 314 309 307 305 305 306 308 313 318 318 318 319 319 318 317 317 317 317 318 319 318 319 319 321 323 323 323 324 322 321 322 321 320 319 318 317 317 317 316 316 317 318 318 316 313 311 310
327 324 319 318 318 318 319 322 322 316 310 310 314 319 321 320 317 313 310 307 305 305 306 311 316 318 318 317 316 315 315 316 317 318 319 319 320 320 320 321 322 322 323 324 321 321 322 321 320 320 319 318 317 317 316 315 315 317 317 315 313 311 310
327 325 320 319 321 320 320 322 321 317 313 310 313 319 321 320 319 318 315 311 307 306 306 309 314 317 316 312 309 310 314 316 317 318 318 319 319 319 319 320 320 321 323 323 322 321 321 320 319 319 319 319 318 318 317 315 315 316 315 313 312 312 310
328 326 321 320 322 323 322 322 321 319 317 314 315 320 321 321 320 319 318 314 309 307 307 307 311 314 312 308 307 309 314 316 317 318 318 318 318 319 320 319 318 319 320 320 321 321 321 320 319 319 319 319 319 319 318 317 316 316 315 313 313 313 311
329 326 323 321 322 323 322 322 321 321 320 318 318 320 320 319 320 319 317 314 309 307 306 305 308 310 310 311 311 312 314 316 317 318 318 317 318 319 319 319 319 318 318 319 320 320 320 320 320 319 319 320 320 320 319 318 317 317 316 315 314 313 312
329 327 324 323 323 323 321 322 322 322 320 319 318 318 317 317 319 319 317 314 310 307 305 305 307 309 310 312 313 313 314 315 316 317 316 316 317 317 318 319 319 319 319 320 320 320 320 319 319 319 319 319 319 319 318 318 318 317 317 316 315 314 313
328 326 324 324 324 323 322 322 322 321 320 319 318 315 313 312 314 316 317 315 311 308 306 307 309 309 309 310 311 311 312 313 314 315 315 315 316 316 316 316 316 317 319 319 320 320 319 319 318 318 318 317 317 318 317 317 318 318 318 317 315 315 315
326 325 324 324 324 323 322 321 322 320 319 318 317 315 312 308 309 313 316 315 311 308 308 309 309 310 310 310 310 310 310 311 313 314 315 317 318 317 317 316 314 314 316 317 318 317 316 316 316 316 317 316 316 317 317 317 318 319 318 317 316 316 316
325 325 324 323 323 323 322 321 321 320 318 318 316 315 312 308 308 313 315 314 310 307 308 309 310 311 312 312 311 311 312 313 315 315 317 318 318 318 319 318 318 318 318 317 317 317 316 316 317 317 317 316 316 316 317 319 319 319 319 318 317 316 316
325 325 324 322 322 323 322 321 320 318 317 317 316 315 313 310 308 309 310 310 308 306 308 311 311 312 315 315 314 314 314 315 317 318 319 319 318 318 319 319 319 319 319 318 317 317 317 318 318 319 319 318 317 317 318 319 319 319 319 319 317 316 315
325 324 323 323 323 322 322 321 319 317 316 316 314 313 312 310 307 306 307 308 307 306 308 310 310 310 312 314 316 317 315 316 318 319 319 319 319 318 319 320 319 318 318 318 318 317 317 317 317 318 318 318 318 318 318 319 319 319 319 319 318 316 315
325 323 322 323 323 322 322 321 320 317 316 317 315 312 311 309 307 307 309 310 307 307 308 308 308 308 309 310 314 318 319 320 319 319 320 321 321 320 320 320 319 318 318 318 317 318 318 317 317 317 317 317 317 317 318 318 318 318 318 317 317 316 316
324 323 322 320 321 322 322 320 319 316 315 317 317 315 313 311 308 308 310 310 309 309 309 309 310 310 310 311 313 317 322 323 321 321 321 321 322 323 322 321 320 319 318 318 317 317 317 317 317 317 317 317 317 317 317 317 317 317 317 317 316 316 316
322 323 322 320 320 322 321 318 316 312 311 315 317 316 315 314 312 310 310 309 309 311 311 311 311 311 312 313 313 316 321 323 323 322 323 322 323 324 324 323 322 321 319 318 317 317 317 317 317 317 317 317 318 318 317 316 317 317 316 316 316 316 316
321 322 321 321 321 321 320 318 316 312 310 311 314 316 318 318 317 315 313 312 313 314 313 313 313 311 311 313 315 317 319 321 322 322 323 323 323 323 324 323 323 322 322 321 318 317 317 317 318 318 317 317 317 317 317 317 317 317 317 316 316 317 317
320 321 320 320 320 320 319 318 317 315 312 311 311 313 317 319 319 317 316 315 315 315 314 314 313 313 313 314 316 318 319 319 319 319 320 321 321 321 322 321 321 321 321 322 320 318 317 317 318 319 319 318 318 318 317 317 317 318 318 317 316 317 317
320 320 320 320 319 320 319 318 316 315 313 312 313 313 315 319 319 318 317 315 315 315 315 315 315 314 314 316 317 319 319 319 318 318 318 319 319 320 320 320 320 320 320 321 320 318 318 318 318 319 320 320 319 318 317 317 318 318 318 318 317 316 316
320 320 319 319 319 319 319 318 317 316 315 315 315 315 316 319 319 319 317 316 317 317 316 316 316 315 316 317 318 319 319 319 319 319 319 319 319 320 320 320 320 320 319 320 319 318 318 318 317 317 319 320 319 317 317 317 318 318 318 318 317 317 317
318 318 318 318 318 319 319 319 318 318 318 318 318 317 318 320 319 319 318 317 318 319 318 317 318 317 317 317 318 318 319 319 319 319 319 319 318 319 320 319 319 319 319 319 319 318 318 317 316 316 318 319 319 318 317 318 318 319 318 318 318 318 318
316 317 317 317 318 319 319 319 319 318 319 319 319 319 319 319 319 319 319 318 318 318 318 318 318 318 318 318 318 319 319 318 319 319 319 319 319 318 319 319 319 319 319 319 318 318 317 316 315 316 318 319 319 318 318 318 318 318 318 317 317 317 316
314 315 315 315 315 316 317 318 318 318 318 318 318 318 317 318 318 318 318 318 318 318 318 317 317 317 317 317 317 318 318 319 319 319 320 320 320 319 319 320 319 319 318 317 317 316 316 316 315 317 318 319 319 318 318 318 318 317 317 316 314 312 310
311 312 312 312 312 312 313 314 314 315 316 315 316 315 315 315 316 316 316 316 317 317 317 316 316 317 317 317 317 317 317 317 318 318 318 317 318 318 319 318 318 317 317 316 317 316 316 316 316 317 318 318 318 318 317 317 316 315 314 312 310 308 307
307 308 308 308 309 309 310 310 311 311 312 312 313 313 312 312 313 313 314 314 315 314 314 314 315 316 316 315 315 316 315 315 315 316 315 314 314 316 316 316 316 316 316 316 316 316 316 316 316 317 317 317 317 316 316 316 314 312 311 309 307 307 307
307 307 307 307 307 307 307 308 308 309 309 309 309 310 311 310 310 310 311 311 312 311 311 312 312 313 313 313 313 313 313 313 314 314 314 314 314 314 314 314 315 315 315 315 315 315 315 316 316 316 316 317 316 315 315 315 312 310 308 307 307 307 306
308 308 307 307 307 306 306 305 306 306 307 307 307 307 307 307 307 307 307 308 308 308 308 309 309 310 310 311 311 312 312 312 312 312 312 312 313 313 313 313 313 312 313 313 314 314 314 314 314 315 315 316 316 315 314 313 311 309 308 307 307 307 306
Wind_Speed
14 15 15 14 13 11 11 11 10 9 9 8 8 7 7 7 7 7 8 8 7 7 6 6 6 7 7 7 7 7 7 7 8 8 8 8 7 7 9 7 3 3 5 6 6 7 9 9 8 7 6 7 7 7 6 6 6 6 6 6 5 5 4
13 14 14 13 12 11 11 11 10 9 9 8 8 8 8 7 7 7 7 7 7 7 6 6 6 6 6 6 5 6 6 6 8 9 9 9 9 8 8 7 5 5 4 4 5 5 6 8 9 9 9 8 7 6 6 6 7 6 6 6 7 7 6
13 12 12 13 13 12 12 12 11 10 9 9 9 9 9 8 8 8 8 8 7 7 7 6 6 6 6 6 5 5 5 5 7 8 8 9 10 10 9 9 9 8 6 5 5 5 6 7 8 10 10 8 7 6 6 7 7 5 5 6 7 8 7
12 11 12 13 13 12 12 12 11 10 10 9 10 11 11 10 10 10 9 9 8 8 7 6 6 5 6 7 6 5 6 6 6 7 7 7 8 9 10 11 11 10 7 5 6 6 6 6 8 11 9 8 7 6 7 9 8 6 5 6 8 9 9
11 11 12 13 12 11 11 11 10 10 10 10 10 11 11 11 10 9 9 8 9 8 8 8 7 6 7 7 6 6 6 6 6 5 5 5 5 6 7 7 6 7 6 5 6 7 6 6 9 11 10 9 8 7 7 8 8 7 6 6 8 9 10
11 11 11 12 12 12 11 12 12 12 11 12 11 11 11 11 10 9 8 8 7 8 8 9 8 7 6 5 6 6 6 6 6 5 5 5 5 6 5 5 4 5 6 5 6 7 6 7 9 11 11 10 9 10 9 8 8 9 8 7 7 9 12
11 11 11 11 11 13 14 13 13 13 13 14 14 13 12 11 10 9 8 7 7 8 8 9 9 8 7 5 5 6 6 7 8 7 6 6 7 7 6 6 5 6 5 5 6 7 7 8 9 11 12 12 11 11 11 10 9 10 9 8 7 9 12
13 12 11 10 11 14 15 15 14 14 14 15 14 13 12 11 10 9 8 7 7 8 8 10 10 10 9 8 7 7 8 9 10 9 8 8 7 6 6 6 6 6 6 5 6 7 7 7 9 10 12 13 12 12 12 11 10 10 10 9 8 8 11
14 13 12 12 12 14 15 15 14 14 15 14 13 13 13 12 11 10 8 7 7 8 10 12 12 11 11 11 10 10 10 10 10 9 8 8 7 6 6 6 6 6 6 6 7 7 8 8 9 9 9 10 12 12 12 11 11 11 11 10 10 9 10
13 12 12 13 14 14 16 15 13 13 14 14 14 15 15 13 12 9 7 7 8 10 12 13 13 13 13 12 12 11 11 10 9 7 6 6 6 6 6 7 7 6 7 8 8 8 9 9 9 9 7 7 9 11 12 12 12 11 10 10 10 10 10
13 11 11 13 14 15 16 14 13 13 14 14 15 17 16 14 12 9 8 8 9 10 12 13 13 14 13 13 12 11 11 9 7 5 5 6 6 6 7 8 8 7 8 9 10 12 12 11 9 8 7 6 6 8 10 11 12 11 10 9 9 10 11
13 12 11 13 15 16 16 13 13 13 13 14 16 18 17 15 12 11 9 9 10 10 12 13 14 14 13 12 11 10 9 8 6 6 7 7 7 7 8 9 9 8 9 11 15 16 15 13 10 8 7 7 6 7 8 9 11 10 9 9 9 10 11
14 12 12 14 16 17 17 14 13 13 12 14 17 18 17 14 13 12 11 10 10 10 12 14 14 13 12 11 10 8 9 8 7 8 9 9 8 8 8 9 9 11 12 14 18 18 15 13 11 9 8 8 8 8 7 7 10 10 9 9 10 10 11
14 13 13 15 16 16 16 14 13 13 13 14 17 17 15 14 13 12 11 11 10 10 11 14 14 12 11 10 10 9 9 9 9 8 9 8 8 8 9 9 11 13 14 16 18 16 14 13 10 8 8 7 7 7 6 7 9 10 10 9 10 10 11
15 14 14 16 15 14 14 15 13 13 13 14 16 16 14 13 13 12 11 11 10 10 10 13 14 12 11 10 10 11 11 10 10 9 9 8 8 9 9 9 11 13 14 15 15 13 12 11 8 7 6 6 6 5 5 6 8 9 10 10 11 11 11
17 15 15 16 16 14 14 14 13 13 13 13 14 14 14 14 13 12 12 11 11 11 11 13 14 12 11 11 11 13 13 12 11 10 9 8 8 8 9 10 10 11 12 13 12 11 10 9 7 6 5 5 5 5 5 5 7 8 9 11 11 11 12
18 16 15 15 15 14 13 14 14 13 13 13 13 13 13 14 13 12 12 12 12 13 13 14 14 13 12 12 12 13 13 12 11 9 8 8 8 7 8 9 9 10 10 11 10 9 8 8 7 6 5 4 4 5 6 6 7 8 9 11 12 11 12
18 16 14 14 14 12 12 14 14 13 13 13 13 13 14 14 14 13 12 12 12 13 14 14 14 14 14 14 13 12 11 11 10 9 8 8 7 7 6 7 7 8 8 7 7 7 6 6 6 5 5 5 5 6 7 7 8 9 10 11 12 12 12
18 17 15 14 13 12 12 14 13 12 13 13 13 13 14 15 16 14 12 11 12 13 14 15 14 14 14 14 13 12 11 10 9 8 8 7 7 6 6 6 6 7 7 6 6 7 6 7 6 6 6 6 6 7 8 8 10 11 12 12 13 13 14
17 17 18 17 15 12 12 13 12 11 12 12 12 12 13 15 16 14 11 11 12 14 15 15 14 13 13 12 11 10 9 9 8 7 7 6 6 6 5 5 5 5 6 6 6 7 7 8 7 7 8 7 7 8 9 9 11 13 14 13 14 15 15
17 16 17 17 16 14 13 13 12 12 12 11 11 11 12 14 15 14 13 12 13 15 15 14 14 12 11 10 9 8 8 7 7 7 7 6 6 6 5 4 4 4 5 6 6 7 7 7 7 6 7 8 8 9 9 9 11 14 16 15 15 15 15
18 17 16 16 17 17 16 15 13 12 12 11 10 10 11 12 14 15 15 14 14 15 15 14 13 12 11 9 8 7 7 7 7 7 7 7 6 6 5 4 4 4 5 6 7 7 7 7 7 6 7 7 8 9 9 9 11 14 16 16 16 15 16
19 19 18 18 20 20 19 17 15 13 13 11 10 11 11 11 12 12 13 13 13 14 14 14 14 13 11 9 8 7 7 7 8 8 8 8 7 7 6 5 5 5 6 6 7 8 8 8 9 9 8 8 8 9 9 10 12 13 15 17 17 16 17
21 20 19 19 20 21 21 21 19 16 13 12 11 11 11 11 11 11 10 10 10 11 12 13 13 13 12 10 9 8 7 8 8 8 9 8 8 8 7 7 7 7 7 8 8 9 9 9 10 11 11 11 11 11 12 13 13 14 15 16 16 17 18
21 20 18 19 20 21 23 22 21 18 14 12 11 11 9 9 10 10 9 8 9 9 10 12 12 12 12 11 11 10 9 8 9 9 9 9 8 8 8 8 9 9 9 9 9 10 11 11 11 12 13 14 14 14 14 15 16 16 16 17 17 18 18
18 20 20 21 22 22 21 19 18 17 15 13 11 10 9 9 9 10 9 8 9 10 10 11 13 14 13 13 13 13 11 10 10 10 10 10 9 9 9 9 9 10 12 11 11 12 13 13 13 14 15 17 17 17 17 16 18 19 19 19 19 18 18
14 17 18 20 22 21 20 20 19 20 21 19 15 10 9 10 11 11 11 10 10 11 11 12 13 14 15 14 14 14 14 14 13 12 12 12 11 11 10 10 10 11 12 13 13 14 14 15 16 16 17 19 19 19 18 17 18 19 21 22 21 20 19
10 11 12 13 16 17 17 19 21 22 25 26 20 13 10 12 14 13 12 11 12 13 13 14 15 15 16 16 15 16 16 16 16 16 16 16 15 14 14 14 14 14 13 14 15 15 15 17 17 16 16 17 17 17 18 19 19 19 20 22 23 23 21
9 9 9 9 12 13 15 18 21 21 23 23 19 15 12 12 13 13 12 11 13 15 15 16 17 17 18 18 18 17 17 17 17 18 18 18 18 17 17 17 17 17 17 16 17 18 16 17 18 16 15 15 14 16 18 18 18 19 20 22 24 25 24
9 9 9 9 10 11 12 14 16 18 19 18 16 14 13 12 11 11 12 12 12 14 15 16 16 17 18 18 18 18 17 17 18 18 17 18 18 18 19 19 19 19 19 19 20 20 18 18 19 17 15 14 14 17 18 18 19 21 21 23 24 24 24
11 10 9 8 9 9 9 9 10 11 12 12 11 11 11 10 9 9 10 12 11 11 14 14 14 14 15 16 17 18 18 17 17 18 18 18 18 19 20 21 21 20 20 20 21 21 19 18 17 15 14 13 14 16 18 18 20 22 24 26 26 25 23
12 11 10 8 8 8 8 7 8 8 8 8 8 7 7 7 8 9 10 11 10 10 12 12 13 13 14 15 16 17 17 16 16 17 17 15 16 17 18 20 21 20 20 21 22 21 18 16 14 12 12 13 14 17 18 18 19 22 24 25 25 24 22
14 14 14 13 10 9 7 5 5 4 6 6 6 5 5 4 4 5 6 7 8 8 9 9 11 12 14 15 16 16 16 15 13 13 13 11 11 12 15 16 18 18 19 20 19 18 15 13 11 10 11 13 14 16 17 15 17 21 22 22 22 21 20
13 13 14 13 12 11 10 8 6 4 2 3 3 3 2 2 2 3 4 5 6 6 7 7 8 9 11 12 13 14 15 14 13 13 13 12 11 10 10 11 14 15 15 15 14 14 13 12 11 12 13 13 14 16 16 15 16 18 21 21 20 20 20
12 12 12 12 11 11 11 10 10 8 7 5 4 4 4 3 2 1 1 3 4 5 5 5 6 8 9 9 9 10 11 10 12 12 10 8 8 7 7 10 13 14 12 12 12 13 12 12 13 14 15 15 15 16 17 17 16 17 19 20 18 19 21
8 8 9 8 8 8 8 8 8 8 7 6 5 4 4 3 3 3 1 2 3 4 3 3 4 6 8 8 8 9 9 9 9 10 8 7 7 8 9 12 14 13 12 13 13 13 13 14 14 15 17 18 18 18 18 18 19 19 20 20 20 21 21
3 3 4 3 3 3 3 3 3 3 3 3 3 2 2 2 3 3 3 3 4 5 5 7 8 8 8 9 9 10 11 11 12 12 13 13 14 14 15 16 16 16 16 16 15 15 15 16 16 18 18 19 20 21 20 20 21 21 21 20 20 19 19
Wind_Direction
182 186 185 186 186 186 186 184 182 179 179 181 183 188 189 188 190 188 188 191 191 189 188 189 188 189 192 189 187 185 186 193 188 179 186 191 193 207 206 192 174 168 164 177 193 177 162 152 147 147 150 151 153 157 156 159 171 183 186 180 176 179 174
182 186 182 179 178 179 180 175 172 175 177 180 183 186 186 186 187 184 182 183 181 181 180 185 189 187 191 190 188 189 187 191 190 183 188 191 189 200 203 194 183 180 177 180 193 190 167 155 155 155 152 152 161 164 159 163 172 177 177 171 168 165 150
185 185 177 173 170 171 174 173 173 175 177 182 183 184 185 185 187 185 181 182 183 182 185 193 200 198 203 204 199 203 201 198 196 192 194 194 193 195 191 187 186 183 184 185 187 183 169 162 159 159 159 161 164 161 158 161 155 155 166 163 158 151 137
184 178 170 168 168 172 175 174 176 176 177 182 183 186 189 185 186 186 181 183 186 186 189 196 200 205 213 214 207 208 210 205 202 199 200 201 202 200 193 190 186 178 180 191 187 181 175 165 157 156 157 157 158 156 154 147 128 118 142 151 146 139 130
182 171 168 170 173 176 174 170 173 176 176 177 181 186 189 184 181 182 179 181 186 187 189 195 198 202 207 207 202 202 202 202 199 191 199 210 204 200 199 196 182 170 184 194 181 178 175 166 158 154 152 146 139 142 143 130 117 114 119 131 136 136 133
181 172 174 175 175 173 171 171 171 173 175 176 177 178 179 175 168 171 173 173 180 183 187 197 200 195 191 186 190 189 182 184 178 167 187 195 178 180 193 198 188 179 186 184 174 174 167 159 157 152 150 144 139 142 141 128 121 118 110 112 123 133 135
176 174 178 179 176 173 174 177 174 175 177 174 172 170 167 165 161 166 172 172 180 186 190 194 189 182 174 164 173 172 161 159 149 142 153 153 153 167 181 190 192 184 180 176 170 169 163 159 159 154 149 147 145 144 142 138 133 126 121 119 117 125 131
172 175 181 181 181 180 180 180 176 174 174 170 168 167 163 163 166 171 175 177 182 181 176 171 164 165 161 148 147 147 140 139 135 133 134 128 128 145 163 177 183 180 177 172 166 162 161 159 159 158 153 149 147 143 144 144 139 135 133 129 122 125 128
173 178 183 182 181 181 179 177 174 172 171 169 169 168 165 167 172 174 171 169 170 165 160 156 153 153 150 140 135 132 128 128 131 133 132 126 119 119 138 156 166 178 176 163 160 159 156 155 156 155 152 152 150 146 148 146 141 140 139 135 134 133 132
176 181 182 177 175 174 172 173 173 172 172 173 173 170 168 170 172 169 159 155 160 162 159 154 153 154 148 138 132 129 130 131 133 140 139 137 130 116 126 143 152 172 172 158 158 157 151 150 151 147 144 151 154 152 152 150 145 146 147 145 143 141 144
174 178 177 174 172 171 170 171 174 176 176 178 177 172 169 170 168 161 154 151 154 162 163 157 157 156 148 141 137 134 138 136 133 142 143 145 145 125 119 136 148 163 166 158 155 150 143 140 138 135 134 141 150 156 157 151 146 151 156 155 153 153 156
173 173 174 175 172 170 172 173 174 176 176 179 177 172 169 168 164 160 158 153 150 159 167 165 162 158 151 147 143 141 142 134 122 131 134 138 149 138 123 128 141 154 158 153 149 144 137 133 130 125 124 122 124 138 152 150 147 152 158 157 155 159 161
173 174 175 176 173 174 175 174 173 173 174 179 177 172 170 167 164 163 164 158 151 155 165 169 166 161 156 150 146 146 143 133 126 129 128 130 140 140 129 126 133 143 146 146 146 144 140 137 131 123 121 114 110 118 134 147 149 149 156 159 158 162 167
176 177 177 175 176 179 176 172 174 172 170 178 178 174 171 169 167 167 166 163 156 152 161 167 166 162 159 156 154 150 141 135 133 129 124 124 128 129 124 122 131 139 142 147 150 149 147 142 134 128 124 118 116 119 124 138 145 151 162 163 160 169 178
178 179 178 174 175 177 175 172 174 172 169 175 178 175 174 173 171 169 166 166 163 156 157 162 162 160 160 159 152 143 138 138 136 128 121 118 119 122 121 120 130 140 145 148 150 150 150 148 145 143 137 132 133 132 134 143 147 156 169 171 169 180 187
181 180 176 174 174 175 176 174 173 174 174 175 174 176 181 179 175 172 169 170 168 163 161 161 159 157 154 149 142 138 138 138 134 127 120 114 113 117 121 125 131 141 146 145 146 150 154 156 160 166 161 157 158 159 160 161 161 166 174 180 182 187 191
185 181 176 176 178 178 178 176 174 176 179 177 174 177 184 182 177 175 173 172 171 168 167 162 157 152 147 141 138 137 137 135 132 128 125 122 119 116 120 128 135 144 149 148 151 158 162 165 171 178 184 191 197 199 194 187 186 183 181 185 189 190 193
188 184 180 181 181 180 180 177 176 178 179 180 179 179 182 180 178 178 175 173 172 169 166 162 156 152 148 142 140 138 137 137 134 133 132 128 126 127 129 137 144 153 158 160 164 170 178 185 189 198 212 221 228 233 228 213 204 201 195 192 190 190 194
184 182 186 190 187 182 183 180 177 178 178 181 182 182 182 181 179 176 172 172 170 166 164 162 158 156 152 148 147 144 142 142 139 138 136 131 132 136 139 151 163 169 173 179 187 193 203 211 214 220 226 228 227 237 244 229 211 207 206 200 192 190 194
182 184 190 192 188 183 184 182 175 175 178 181 183 182 182 181 176 171 170 171 169 166 167 166 164 163 160 158 156 153 152 151 149 150 147 144 147 143 143 158 171 178 187 194 204 213 221 227 229 227 229 229 225 233 244 235 215 209 208 205 200 197 196
188 194 196 191 183 180 183 181 173 171 175 180 182 180 180 180 175 171 171 170 170 171 171 171 171 168 167 168 165 164 165 163 165 169 166 165 167 158 154 162 164 177 196 203 208 217 222 227 232 235 238 239 234 235 238 231 219 212 208 206 205 204 201
188 191 194 190 182 179 182 181 174 171 174 175 175 172 174 178 175 173 171 167 172 176 174 175 178 174 171 175 175 176 181 181 185 188 186 186 187 179 174 181 189 201 219 225 226 228 229 228 230 234 239 244 245 243 239 232 224 216 212 212 212 210 205
187 188 193 195 189 182 181 179 174 173 176 173 168 164 165 169 170 171 171 170 177 182 182 186 190 187 184 184 186 194 200 197 196 199 202 204 206 207 208 218 231 239 244 247 247 248 247 247 245 241 242 245 247 244 241 237 230 223 220 220 219 217 214
187 190 194 197 193 186 184 181 174 172 176 173 169 164 159 160 162 166 172 177 184 191 197 201 200 199 199 196 197 203 205 203 201 203 208 211 217 224 227 234 248 257 261 260 260 258 254 255 256 254 255 256 254 250 243 239 236 232 231 229 227 225 224
179 183 189 197 199 196 194 187 172 167 174 174 169 165 163 165 169 172 175 183 196 205 210 212 210 208 208 207 205 204 203 210 211 212 217 218 221 229 234 243 254 263 267 267 268 270 268 265 264 263 263 261 260 257 249 241 236 233 234 235 235 234 232
173 180 188 197 201 200 203 198 180 174 181 180 174 175 183 188 186 189 192 197 211 218 217 217 218 217 216 218 214 207 208 217 219 219 223 224 226 230 234 242 253 264 270 270 270 272 273 273 271 269 268 265 262 258 252 244 237 234 234 236 239 240 239
175 185 191 196 198 198 207 213 205 197 198 198 200 203 204 198 194 199 205 208 218 225 223 220 221 220 221 222 219 215 217 221 223 225 228 229 232 236 239 245 250 257 264 269 272 273 275 278 278 273 270 268 264 259 252 243 238 235 235 237 240 243 242
161 172 182 193 194 192 198 205 205 204 204 206 213 227 227 210 199 199 204 211 222 228 227 226 225 224 223 223 222 223 226 228 230 233 235 236 238 242 247 252 254 257 259 262 268 272 274 278 279 274 268 266 262 257 249 241 239 237 237 238 241 242 242
152 157 162 177 185 184 187 192 194 198 204 210 222 238 241 223 208 205 211 220 230 234 232 230 229 227 226 226 227 228 231 234 236 238 240 242 244 247 252 255 258 262 264 264 267 270 272 276 276 270 264 259 254 251 246 240 239 239 239 239 240 242 243
132 137 141 158 177 184 188 191 191 194 203 215 227 237 239 231 219 216 222 223 226 233 234 232 233 233 231 231 232 233 237 240 242 244 246 248 249 252 256 257 258 262 265 266 269 273 275 275 272 264 257 251 249 251 245 238 238 242 242 242 241 242 245
113 119 127 143 159 165 169 175 178 186 198 207 214 222 230 233 224 220 226 223 218 228 236 234 235 237 237 238 240 242 245 247 250 254 256 257 259 260 260 260 261 263 266 267 270 276 278 272 265 258 251 244 243 246 244 239 240 243 241 240 239 238 240
94 97 101 109 124 139 149 159 169 183 195 197 198 203 207 213 213 215 225 227 222 232 242 241 240 242 244 246 248 250 254 257 260 264 264 264 263 261 262 264 265 264 264 266 270 274 270 262 257 254 246 240 239 244 248 248 247 248 247 245 243 241 237
93 93 93 92 94 102 113 124 145 178 200 200 205 210 200 206 224 223 231 242 240 243 249 250 251 253 254 255 256 258 262 262 261 262 261 261 263 264 266 269 268 266 265 267 268 264 253 246 248 247 242 242 246 252 259 260 253 251 251 249 247 245 240
95 95 95 93 89 89 93 96 98 98 122 164 180 193 182 197 243 250 266 276 271 269 270 269 272 274 270 268 266 265 266 265 265 267 265 260 262 269 270 265 265 266 266 264 259 250 242 240 243 242 239 241 247 254 262 265 257 250 247 244 242 239 232
94 91 91 92 90 88 90 92 93 86 77 80 87 87 92 94 94 118 263 269 275 290 288 273 272 276 275 276 275 273 276 275 274 281 285 268 257 261 262 260 264 268 267 261 255 248 244 245 247 246 244 242 242 246 253 260 259 251 246 242 235 228 225
92 90 91 93 92 91 94 96 97 95 86 82 78 73 74 77 82 97 148 258 280 302 305 271 259 265 271 279 282 283 289 290 283 287 295 284 267 262 263 266 269 268 264 262 260 257 255 253 251 252 253 252 249 245 246 254 257 251 244 239 230 223 219
79 76 78 84 85 86 93 98 104 114 123 136 153 167 172 161 155 172 206 239 262 274 277 272 269 268 271 276 278 279 283 286 285 286 288 286 283 279 275 275 276 274 271 268 265 262 262 259 256 257 259 259 256 248 241 241 245 242 235 227 220 215 210